• In Spain
  • List of Countries
  • For 7 days
  • Water Temperature
  • Satellite Maps
  • Weather Map
  • Weather Widgets
  • user-avatar
    Login

    Hourly Weather Dmitrovskiy

    Today, 15 November, Thursday

    Time Temperature Precipitation Wind Pressure Humidity
    00:00 -3°C° 0 mm 4 mps 753 mmHg 65%
    01:00 -4°C° 0 mm 4 mps 753 mmHg 68%
    02:00 -4°C° 0 mm 3 mps 754 mmHg 66%
    03:00 -4°C° 0 mm 3 mps 754 mmHg 67%
    04:00 -4°C° 0 mm 3 mps 754 mmHg 68%
    05:00 -4°C° 0 mm 4 mps 754 mmHg 69%
    06:00 -4°C° 0 mm 4 mps 755 mmHg 69%
    07:00 -4°C° 0 mm 4 mps 755 mmHg 69%
    08:00 -4°C° 0 mm 4 mps 756 mmHg 69%
    09:00 -3°C° 0 mm 4 mps 756 mmHg 65%
    10:00 -2°C° 0 mm 3 mps 756 mmHg 62%
    11:00 -1°C° 0 mm 3 mps 757 mmHg 58%
    12:00 -1°C° 0 mm 3 mps 757 mmHg 56%
    13:00 0°C° 0 mm 3 mps 757 mmHg 55%
    14:00 0°C° 0 mm 3 mps 757 mmHg 53%
    15:00 -1°C° 0 mm 3 mps 758 mmHg 55%
    16:00 -2°C° 0 mm 3 mps 758 mmHg 57%
    17:00 -4°C° 0 mm 3 mps 759 mmHg 59%
    18:00 -4°C° 0 mm 3 mps 759 mmHg 57%
    19:00 -4°C° 0 mm 3 mps 759 mmHg 55%
    20:00 -4°C° 0 mm 3 mps 760 mmHg 53%
    21:00 -4°C° 0 mm 3 mps 760 mmHg 52%
    22:00 -4°C° 0 mm 3 mps 760 mmHg 50%
    23:00 -3°C° 0 mm 2 mps 761 mmHg 48%

    Tomorrow, 16 November, Friday

    Time Temperature Precipitation Wind Pressure Humidity
    00:00 -4°C° 0 mm 2 mps 761 mmHg 46%
    01:00 -4°C° 0 mm 2 mps 761 mmHg 45%
    02:00 -4°C° 0 mm 2 mps 762 mmHg 43%
    03:00 -5°C° 0 mm 3 mps 762 mmHg 41%
    04:00 -5°C° 0 mm 3 mps 762 mmHg 39%
    05:00 -5°C° 0 mm 3 mps 762 mmHg 37%
    06:00 -5°C° 0 mm 3 mps 762 mmHg 35%
    07:00 -5°C° 0 mm 3 mps 763 mmHg 34%
    08:00 -5°C° 0 mm 3 mps 763 mmHg 32%
    09:00 -4°C° 0 mm 3 mps 763 mmHg 30%
    10:00 -2°C° 0 mm 3 mps 763 mmHg 28%
    11:00 -1°C° 0 mm 3 mps 763 mmHg 27%
    12:00 -1°C° 0 mm 3 mps 763 mmHg 27%
    13:00 0°C° 0 mm 3 mps 763 mmHg 27%
    14:00 0°C° 0 mm 3 mps 763 mmHg 27%
    15:00 -1°C° 0 mm 3 mps 763 mmHg 29%
    16:00 -2°C° 0 mm 3 mps 763 mmHg 31%
    17:00 -4°C° 0 mm 3 mps 763 mmHg 33%
    18:00 -4°C° 0 mm 3 mps 763 mmHg 32%
    19:00 -4°C° 0 mm 3 mps 764 mmHg 31%
    20:00 -4°C° 0 mm 3 mps 764 mmHg 30%
    21:00 -4°C° 0 mm 3 mps 764 mmHg 29%
    22:00 -5°C° 0 mm 3 mps 764 mmHg 28%
    23:00 -5°C° 0 mm 3 mps 764 mmHg 27%

    Day after tomorrow, 17 November, Saturday

    Time Temperature Precipitation Wind Pressure Humidity
    00:00 -4°C° 0 mm 2 mps 764 mmHg 26%
    01:00 -4°C° 0 mm 2 mps 763 mmHg 25%
    02:00 -4°C° 0 mm 2 mps 763 mmHg 24%
    03:00 -4°C° 0 mm 2 mps 763 mmHg 24%
    04:00 -4°C° 0 mm 2 mps 763 mmHg 23%
    05:00 -4°C° 0 mm 2 mps 763 mmHg 23%
    06:00 -4°C° 0 mm 2 mps 763 mmHg 22%
    07:00 -4°C° 0 mm 2 mps 763 mmHg 21%
    08:00 -4°C° 0 mm 2 mps 763 mmHg 21%
    09:00 -3°C° 0 mm 2 mps 762 mmHg 19%
    10:00 0°C° 0 mm 1 mps 762 mmHg 17%
    11:00 +2°C° 0 mm 1 mps 762 mmHg 15%
    12:00 +2°C° 0 mm 1 mps 761 mmHg 17%
    13:00 +2°C° 0 mm 1 mps 760 mmHg 18%
    14:00 +1°C° 0 mm 0 mps 760 mmHg 19%
    15:00 +1°C° 0 mm 1 mps 759 mmHg 20%
    16:00 0°C° 0 mm 1 mps 759 mmHg 20%
    17:00 -1°C° 0 mm 1 mps 758 mmHg 21%
    18:00 -1°C° 0 mm 1 mps 758 mmHg 21%
    19:00 -1°C° 0 mm 1 mps 757 mmHg 22%
    20:00 -1°C° 0 mm 1 mps 757 mmHg 22%
    21:00 -3°C° 0 mm 2 mps 756 mmHg 23%
    22:00 -3°C° 0 mm 2 mps 755 mmHg 24%
    23:00 -3°C° 0 mm 2 mps 755 mmHg 25%

    18 November, Sunday

    Time Temperature Precipitation Wind Pressure Humidity
    00:00 -3°C° 0 mm 2 mps 754 mmHg 27%
    01:00 -4°C° 0 mm 3 mps 753 mmHg 29%
    02:00 -4°C° 0 mm 3 mps 752 mmHg 31%
    03:00 -4°C° 0.1 mm 3 mps 752 mmHg 38%
    04:00 -4°C° 0.1 mm 3 mps 751 mmHg 45%
    05:00 -4°C° 0.1 mm 3 mps 750 mmHg 52%
    06:00 -4°C° 0.1 mm 3 mps 750 mmHg 58%
    07:00 -4°C° 0.1 mm 3 mps 749 mmHg 64%
    08:00 -4°C° 0.1 mm 3 mps 749 mmHg 69%
    09:00 -4°C° 0.2 mm 3 mps 749 mmHg 72%
    10:00 -4°C° 0.2 mm 3 mps 748 mmHg 75%
    11:00 -4°C° 0.2 mm 3 mps 748 mmHg 77%
    12:00 -2°C° 0.1 mm 3 mps 748 mmHg 78%
    13:00 -2°C° 0.1 mm 2 mps 748 mmHg 78%
    14:00 -2°C° 0.1 mm 2 mps 748 mmHg 78%
    15:00 -2°C° 0.1 mm 2 mps 748 mmHg 79%
    16:00 -2°C° 0.1 mm 2 mps 748 mmHg 80%
    17:00 -3°C° 0.1 mm 2 mps 748 mmHg 82%
    18:00 -3°C° 0.1 mm 2 mps 748 mmHg 82%
    19:00 -3°C° 0.1 mm 2 mps 748 mmHg 81%
    20:00 -3°C° 0.1 mm 2 mps 748 mmHg 81%
    21:00 -3°C° 0.1 mm 2 mps 748 mmHg 79%
    22:00 -3°C° 0.1 mm 2 mps 749 mmHg 77%
    23:00 -3°C° 0.1 mm 2 mps 749 mmHg 74%

    19 November, Monday

    Time Temperature Precipitation Wind Pressure Humidity
    00:00 -3°C° 0 mm 2 mps 749 mmHg 70%
    01:00 -3°C° 0 mm 2 mps 749 mmHg 67%
    02:00 -3°C° 0 mm 2 mps 750 mmHg 63%
    03:00 -3°C° 0 mm 2 mps 750 mmHg 60%
    04:00 -4°C° 0 mm 2 mps 750 mmHg 56%
    05:00 -4°C° 0 mm 2 mps 750 mmHg 53%
    06:00 -4°C° 0 mm 2 mps 751 mmHg 52%
    07:00 -4°C° 0 mm 2 mps 751 mmHg 52%
    08:00 -6°C° 0 mm 3 mps 752 mmHg 51%
    09:00 -5°C° 0 mm 3 mps 752 mmHg 50%
    10:00 -4°C° 0 mm 3 mps 753 mmHg 48%
    11:00 -2°C° 0 mm 3 mps 753 mmHg 47%
    12:00 -2°C° 0 mm 3 mps 754 mmHg 49%
    13:00 -2°C° 0 mm 3 mps 754 mmHg 51%
    14:00 -1°C° 0 mm 2 mps 754 mmHg 53%
    15:00 -2°C° 0 mm 3 mps 754 mmHg 56%
    16:00 -4°C° 0 mm 3 mps 755 mmHg 59%
    17:00 -5°C° 0 mm 3 mps 755 mmHg 62%
    18:00 -5°C° 0 mm 3 mps 755 mmHg 62%
    19:00 -5°C° 0 mm 3 mps 755 mmHg 63%
    20:00 -5°C° 0 mm 3 mps 755 mmHg 64%
    21:00 -5°C° 0 mm 3 mps 756 mmHg 65%
    22:00 -5°C° 0 mm 3 mps 756 mmHg 65%
    23:00 -6°C° 0 mm 3 mps 756 mmHg 66%

    20 November, Tuesday

    Time Temperature Precipitation Wind Pressure Humidity
    00:00 -6°C° 0 mm 3 mps 756 mmHg 66%
    01:00 -6°C° 0 mm 3 mps 756 mmHg 67%
    02:00 -6°C° 0 mm 3 mps 756 mmHg 67%
    03:00 -6°C° 0 mm 3 mps 756 mmHg 67%
    04:00 -6°C° 0 mm 3 mps 756 mmHg 67%
    05:00 -6°C° 0 mm 3 mps 756 mmHg 67%
    06:00 -6°C° 0 mm 3 mps 756 mmHg 65%
    07:00 -6°C° 0 mm 3 mps 756 mmHg 64%
    08:00 -6°C° 0 mm 3 mps 756 mmHg 63%
    09:00 -5°C° 0 mm 3 mps 756 mmHg 59%
    10:00 -4°C° 0 mm 3 mps 756 mmHg 55%
    11:00 -2°C° 0 mm 3 mps 756 mmHg 50%
    12:00 -2°C° 0 mm 3 mps 756 mmHg 51%
    13:00 -2°C° 0 mm 3 mps 756 mmHg 53%
    14:00 -2°C° 0 mm 3 mps 755 mmHg 54%
    15:00 -4°C° 0 mm 3 mps 755 mmHg 56%
    16:00 -4°C° 0 mm 3 mps 755 mmHg 58%
    17:00 -5°C° 0 mm 3 mps 755 mmHg 61%
    18:00 -5°C° 0 mm 3 mps 755 mmHg 61%
    19:00 -4°C° 0 mm 2 mps 755 mmHg 61%
    20:00 -4°C° 0 mm 2 mps 755 mmHg 62%
    21:00 -4°C° 0 mm 2 mps 755 mmHg 62%
    22:00 -5°C° 0 mm 2 mps 755 mmHg 62%
    23:00 -5°C° 0 mm 2 mps 755 mmHg 63%
    Show more